Regional Weather Roundup
Issued by NWS

Home | Current Version | Previous Version | Text Only | Print | Product List | Glossary On
Versions: 1 2 3 4 5 6 7 8 9 10 11 12 13 14 15 16 17 18 19 20 21 22 23 24 25 26 27 28
000
ASUS44 KLIX 301014
RWRLA
LOUISIANA WEATHER ROUNDUP
NATIONAL WEATHER SERVICE NEW ORLEANS LA
500 AM CDT TUE MAY 30 2017

NOTE: "FAIR" INDICATES FEW OR NO CLOUDS BELOW 12,000 FEET WITH NO
      SIGNIFICANT WEATHER AND/OR OBSTRUCTIONS TO VISIBILITY.
      SKY/WX - SKY CONDITION AND SIGNIFICANT WEATHER.
      TMP - AIR TEMPERATURE.    DP   - DEWPOINT TEMPERATURE.
      RH  - RELATIVE HUMIDITY.  PRES - PRESSURE.
      HX  - HEAT INDEX.         WCI  - WIND CHILL INDEX.

*  THESE STATIONS ARE NOT NWS OR FAA STATIONS AND ARE NOT UNDER
   NWS QUALITY CONTROL.

LAZ040-048-061>063-065-066-069-301100-
SOUTHEAST LOUISIANA

CITY           SKY/WX    TMP DP  RH WIND       PRES   REMARKS
N.O. INTL ARPT TSTM      70  69  97 NE7       30.07R
N.O. LAKEFRONT RAIN      73  70  90 SE10      30.07R FOG
N.O. DOWNTOWN* LGT RAIN  72  69  90 VRB3        N/A  FOG
RESERVE*       PTSUNNY   74  71  91 SE6       30.05S
SLIDELL        CLOUDY    71  69  93 NE3       30.05F
BATON ROUGE    LGT RAIN  69  68  96 N8        30.06R
BOOTHVILLE     CLOUDY    76  72  87 E7        30.08R
BELLE CHASSE   CLOUDY   N/A N/A N/A SE10      30.05F
BOGALUSA*      FAIR      72  69  90 SE3       30.09S
GALLIANO*      LGT RAIN  71  67  85 E6        30.05F
NEW ROADS*     HVY RAIN  66  63  89 CALM      30.06R
GONZALES*      LGT RAIN  72  70  95 CALM      30.04R
HAMMOND*       CLOUDY    72  68  88 N5        30.07R
HOUMA*         NOT AVBL
PORT FOURCHON* CLOUDY    73  70  88 NE8       30.05S

$$

LAZ041-044-053-054-301100-
SOUTHWEST LOUISIANA

CITY           SKY/WX    TMP DP  RH WIND       PRES   REMARKS
LAKE CHARLES   HVY RAIN  70  70 100 E10       30.02F FOG
LAFAYETTE      LGT RAIN  70  69  97 VRB3      30.04R
PATTERSON      LGT RAIN  72  69  90 E8        30.02F
SALT POINT       N/A     72  70  93 VRB3      29.99F
NEW IBERIA     CLOUDY    71  67  87 NE8       30.03S
CHENAULT AIRPK LGT RAIN  69  68  97 NE5       30.04S

$$

LAZ027-028-301100-
CENTRAL LOUISIANA

CITY           SKY/WX    TMP DP  RH WIND       PRES   REMARKS
FORT POLK      NOT AVBL
ALEXANDRIA INT CLOUDY    72  71  97 CALM      30.03F
ALEXANDRIA     CLOUDY    70  70 100 CALM      30.05F FOG

$$

LAZ001-002-301100-
NORTHWEST LOUISIANA

CITY           SKY/WX    TMP DP  RH WIND       PRES   REMARKS
SHREVEPORT     PTCLDY    67  66  97 CALM      30.04
BARKSDALE AFB  CLEAR     64  64 100 CALM      30.04S
DTN SHREVEPORT MOCLDY    68  66  93 N3        30.05S FOG

$$

LAZ014-016-301100-
NORTHEAST LOUISIANA

CITY           SKY/WX    TMP DP  RH WIND       PRES   REMARKS
MONROE         MOCLDY    71  69  93 CALM      30.06R
TALLULAH       CLOUDY    70  69  97 CALM      30.06S

$$





USA.gov is the U.S. government's official web portal to all federal, state and local government web resources and services.